sat.trackr.live / text

‹ back to catalog

ONEWEB-0404

NORAD 50484 · 2021-132R

PAYLOAD ACTIVE UNKNOWN

§ Identity

Operator
Country
UK
Launch date
2021-12-27
Launch site
TYMSC
Launch vehicle
Mass (kg)
RCS (m²)

Purposes: comms

External: N2YO · Heavens-Above · Gunter

§ Orbital elements

Epoch: 2026-09-20T00:22:45.031008Z

Period
109.80 min
Inclination
87.8973°
Eccentricity
0.0001910
Mean motion
13.11418643 rev/d
Perigee alt
1,216.2 km
Apogee alt
1,219.1 km
Semi-major
7,595.8 km
B*
-2.8273e-4
RAAN
2.2178°
Arg perigee
111.7592°
Mean anomaly
248.3740°
Rev number
22,812

§ Raw data

ONEWEB-04041 50484U 21132R   26263.01579897 -.00000088  00000+0 -28273-3 0  99972 50484  87.8973   2.2178 0001910 111.7592 248.3740 13.11418643228127

JSON: /api/v1/satellites/50484 · /tle

For live sub-satellite position, see the globe view (requires WebGL).

§ Visibility from observer

Set your observer location to see the next 7 days of passes ≥ 10°. The values pass through the URL so the page stays shareable.

No JS? Fill the form by hand. The geolocation button needs JavaScript.